timestamp,wind_dir_avg,wind_spd_max_dir,wind_spd_avg,wind_spd_gust,battery_voltage,lat,long
2017-11-06 00:00:00+00:00,103.0,93.0,0.88,1.25,,47.59359,-54.27349
2017-11-06 00:10:00+00:00,9.0,22.0,0.12,0.31,,47.59359,-54.27349
2017-11-06 00:20:00+00:00,214.0,212.0,2.63,3.31,,47.59359,-54.27349
2017-11-06 00:30:00+00:00,203.0,210.0,3.66,4.47,,47.59359,-54.27349
2017-11-06 00:40:00+00:00,183.0,181.0,2.22,2.86,,47.59359,-54.27349
2017-11-06 00:50:00+00:00,186.0,195.0,2.97,3.73,,47.59359,-54.27349
2017-11-06 01:00:00+00:00,152.0,158.0,4.24,4.96,,47.59359,-54.27349
2017-11-06 01:10:00+00:00,151.0,147.0,3.64,4.26,,47.59359,-54.27349
2017-11-06 01:20:00+00:00,181.0,175.0,3.69,4.58,,47.59359,-54.27349
2017-11-06 01:30:00+00:00,139.0,136.0,4.23,4.88,,47.59359,-54.27349
2017-11-06 01:40:00+00:00,174.0,171.0,3.77,4.35,,47.59359,-54.27349
2017-11-06 01:50:00+00:00,187.0,177.0,3.75,4.81,,47.59359,-54.27349
2017-11-06 02:00:00+00:00,180.0,178.0,4.09,4.65,,47.59359,-54.27349
2017-11-06 02:10:00+00:00,185.0,194.0,3.39,4.05,,47.59359,-54.27349
2017-11-06 02:20:00+00:00,193.0,205.0,2.97,3.52,,47.59359,-54.27349
2017-11-06 02:30:00+00:00,184.0,190.0,3.84,4.78,,47.59359,-54.27349
2017-11-06 02:40:00+00:00,198.0,196.0,3.27,3.82,,47.59359,-54.27349
2017-11-06 02:50:00+00:00,197.0,202.0,3.64,4.68,,47.59359,-54.27349
2017-11-06 03:00:00+00:00,213.0,208.0,4.6,5.16,,47.59359,-54.27349
2017-11-06 03:10:00+00:00,203.0,208.0,4.53,5.35,,47.59359,-54.27349
2017-11-06 03:20:00+00:00,200.0,206.0,5.05,5.77,,47.59359,-54.27349
2017-11-06 03:30:00+00:00,218.0,219.0,6.21,7.11,,47.59359,-54.27349
2017-11-06 03:40:00+00:00,255.0,257.0,5.89,6.96,,47.59359,-54.27349
2017-11-06 03:50:00+00:00,244.0,256.0,5.74,6.96,,47.59359,-54.27349
2017-11-06 04:00:00+00:00,227.0,229.0,7.63,9.2,,47.59359,-54.27349
2017-11-06 04:10:00+00:00,227.0,244.0,8.88,11.09,,47.59359,-54.27349
2017-11-06 04:20:00+00:00,217.0,216.0,8.98,10.56,,47.59359,-54.27349
2017-11-06 04:30:00+00:00,221.0,227.0,9.97,11.93,,47.59359,-54.27349
2017-11-06 04:40:00+00:00,211.0,218.0,10.32,12.06,,47.59359,-54.27349
2017-11-06 04:50:00+00:00,220.0,221.0,9.55,11.46,,47.59359,-54.27349
2017-11-06 05:00:00+00:00,231.0,230.0,9.85,10.99,,47.59359,-54.27349
2017-11-06 05:10:00+00:00,218.0,221.0,10.56,12.22,,47.59359,-54.27349
2017-11-06 05:20:00+00:00,230.0,226.0,10.14,11.7,,47.59359,-54.27349
2017-11-06 05:30:00+00:00,232.0,235.0,10.4,11.56,,47.59359,-54.27349
2017-11-06 05:40:00+00:00,219.0,218.0,12.24,14.35,,47.59359,-54.27349
2017-11-06 05:50:00+00:00,229.0,224.0,10.15,11.74,,47.59359,-54.27349
2017-11-06 06:00:00+00:00,223.0,225.0,9.49,10.93,,47.59359,-54.27349
2017-11-06 06:10:00+00:00,225.0,226.0,9.24,11.04,,47.59359,-54.27349
2017-11-06 06:20:00+00:00,230.0,234.0,9.21,10.58,,47.59359,-54.27349
2017-11-06 06:30:00+00:00,223.0,222.0,10.9,12.41,,47.59359,-54.27349
2017-11-06 06:40:00+00:00,221.0,224.0,10.2,11.65,,47.59359,-54.27349
2017-11-06 06:50:00+00:00,223.0,219.0,12.52,13.78,,47.59359,-54.27349
2017-11-06 07:00:00+00:00,225.0,225.0,11.74,13.11,,47.59359,-54.27349
2017-11-06 07:10:00+00:00,221.0,221.0,11.31,12.86,,47.59359,-54.27349
2017-11-06 07:20:00+00:00,230.0,239.0,10.6,12.38,,47.59359,-54.27349
2017-11-06 07:30:00+00:00,223.0,220.0,10.62,12.41,,47.59359,-54.27349
2017-11-06 07:40:00+00:00,229.0,229.0,11.14,12.35,,47.59359,-54.27349
2017-11-06 07:50:00+00:00,221.0,223.0,11.61,13.43,,47.59359,-54.27349
2017-11-06 08:00:00+00:00,225.0,228.0,11.71,13.61,,47.59359,-54.27349
2017-11-06 08:10:00+00:00,228.0,223.0,11.11,12.63,,47.59359,-54.27349
2017-11-06 08:20:00+00:00,229.0,239.0,13.2,16.17,,47.59359,-54.27349
2017-11-06 08:30:00+00:00,237.0,235.0,12.6,14.26,,47.59359,-54.27349
2017-11-06 08:40:00+00:00,228.0,235.0,10.85,13.17,,47.59359,-54.27349
2017-11-06 08:50:00+00:00,234.0,238.0,11.01,13.27,,47.59359,-54.27349
2017-11-06 09:00:00+00:00,225.0,216.0,12.16,15.39,,47.59359,-54.27349
2017-11-06 09:10:00+00:00,227.0,225.0,11.46,13.48,,47.59359,-54.27349
2017-11-06 09:20:00+00:00,234.0,231.0,12.85,14.48,,47.59359,-54.27349
2017-11-06 09:30:00+00:00,228.0,230.0,12.33,14.06,,47.59359,-54.27349
2017-11-06 09:40:00+00:00,238.0,244.0,11.73,13.86,,47.59359,-54.27349
2017-11-06 09:50:00+00:00,235.0,236.0,10.58,12.65,,47.59359,-54.27349
2017-11-06 10:00:00+00:00,229.0,226.0,14.54,16.5,,47.59359,-54.27349
2017-11-06 10:10:00+00:00,228.0,229.0,12.65,14.98,,47.59359,-54.27349
2017-11-06 10:20:00+00:00,221.0,219.0,13.78,15.2,,47.59359,-54.27349
2017-11-06 10:30:00+00:00,224.0,224.0,13.18,15.74,,47.59359,-54.27349
2017-11-06 10:40:00+00:00,227.0,228.0,13.25,15.68,,47.59359,-54.27349
2017-11-06 10:50:00+00:00,228.0,229.0,13.9,16.64,,47.59359,-54.27349
2017-11-06 11:00:00+00:00,222.0,229.0,12.87,14.49,,47.59359,-54.27349
2017-11-06 11:10:00+00:00,217.0,214.0,13.05,15.43,,47.59359,-54.27349
2017-11-06 11:20:00+00:00,227.0,226.0,12.37,14.31,,47.59359,-54.27349
2017-11-06 11:30:00+00:00,224.0,217.0,12.34,14.79,,47.59359,-54.27349
2017-11-06 11:40:00+00:00,230.0,227.0,12.96,15.47,,47.59359,-54.27349
2017-11-06 11:50:00+00:00,230.0,230.0,13.29,14.99,,47.59359,-54.27349
2017-11-06 12:00:00+00:00,222.0,221.0,12.0,13.53,,47.59359,-54.27349
2017-11-06 12:10:00+00:00,218.0,221.0,12.16,13.65,,47.59359,-54.27349
2017-11-06 12:20:00+00:00,217.0,212.0,12.88,15.64,,47.59359,-54.27349
2017-11-06 12:30:00+00:00,218.0,212.0,13.49,15.29,,47.59359,-54.27349
2017-11-06 12:40:00+00:00,218.0,218.0,11.22,13.37,,47.59359,-54.27349
2017-11-06 12:50:00+00:00,220.0,220.0,12.59,14.07,,47.59359,-54.27349
2017-11-06 13:00:00+00:00,223.0,221.0,13.22,15.68,,47.59359,-54.27349
2017-11-06 13:10:00+00:00,222.0,226.0,13.48,15.44,,47.59359,-54.27349
2017-11-06 13:20:00+00:00,226.0,229.0,13.67,15.72,,47.59359,-54.27349
2017-11-06 13:30:00+00:00,216.0,218.0,13.41,15.81,,47.59359,-54.27349
2017-11-06 13:40:00+00:00,221.0,232.0,14.18,18.86,,47.59359,-54.27349
2017-11-06 13:50:00+00:00,218.0,219.0,14.19,16.03,,47.59359,-54.27349
2017-11-06 14:00:00+00:00,224.0,230.0,13.69,15.23,,47.59359,-54.27349
2017-11-06 14:10:00+00:00,222.0,220.0,15.21,17.69,,47.59359,-54.27349
2017-11-06 14:20:00+00:00,222.0,225.0,13.77,16.78,,47.59359,-54.27349
2017-11-06 14:30:00+00:00,219.0,220.0,14.83,17.36,,47.59359,-54.27349
2017-11-06 14:40:00+00:00,220.0,221.0,13.95,16.64,,47.59359,-54.27349
2017-11-06 14:50:00+00:00,222.0,224.0,15.04,17.28,,47.59359,-54.27349
2017-11-06 15:00:00+00:00,217.0,221.0,13.12,15.48,,47.59359,-54.27349
2017-11-06 15:10:00+00:00,215.0,217.0,14.63,17.2,,47.59359,-54.27349
2017-11-06 15:20:00+00:00,215.0,214.0,12.83,15.19,,47.59359,-54.27349
2017-11-06 15:30:00+00:00,212.0,216.0,13.16,14.77,,47.59359,-54.27349
2017-11-06 15:40:00+00:00,212.0,211.0,13.71,15.82,,47.59359,-54.27349
2017-11-06 15:50:00+00:00,210.0,209.0,14.05,16.04,,47.59359,-54.27349
2017-11-06 16:00:00+00:00,213.0,213.0,14.05,16.06,,47.59359,-54.27349
2017-11-06 16:10:00+00:00,216.0,218.0,14.91,17.85,,47.59359,-54.27349
2017-11-06 16:20:00+00:00,210.0,207.0,15.13,18.13,,47.59359,-54.27349
2017-11-06 16:30:00+00:00,216.0,219.0,17.53,19.63,,47.59359,-54.27349
2017-11-06 16:40:00+00:00,218.0,217.0,16.11,18.86,,47.59359,-54.27349
2017-11-06 16:50:00+00:00,216.0,214.0,14.92,16.74,,47.59359,-54.27349
2017-11-06 17:00:00+00:00,218.0,218.0,15.18,17.23,,47.59359,-54.27349
2017-11-06 17:10:00+00:00,215.0,217.0,14.31,15.44,,47.59359,-54.27349
2017-11-06 17:20:00+00:00,217.0,226.0,14.68,16.69,,47.59359,-54.27349
2017-11-06 17:30:00+00:00,214.0,218.0,13.73,16.87,,47.59359,-54.27349
2017-11-06 17:40:00+00:00,219.0,226.0,14.85,17.5,,47.59359,-54.27349
2017-11-06 17:50:00+00:00,221.0,221.0,14.37,16.37,,47.59359,-54.27349
2017-11-06 18:00:00+00:00,223.0,224.0,14.94,16.65,,47.59359,-54.27349
2017-11-06 18:10:00+00:00,219.0,217.0,14.04,17.14,,47.59359,-54.27349
2017-11-06 18:20:00+00:00,217.0,216.0,16.27,18.39,,47.59359,-54.27349
2017-11-06 18:30:00+00:00,220.0,219.0,13.6,16.13,,47.59359,-54.27349
2017-11-06 18:40:00+00:00,218.0,219.0,12.43,14.07,,47.59359,-54.27349
2017-11-06 18:50:00+00:00,220.0,217.0,15.11,17.81,,47.59359,-54.27349
2017-11-06 19:00:00+00:00,221.0,220.0,12.95,15.16,,47.59359,-54.27349
2017-11-06 19:10:00+00:00,224.0,223.0,12.94,15.13,,47.59359,-54.27349
2017-11-06 19:20:00+00:00,224.0,225.0,14.71,16.92,,47.59359,-54.27349
2017-11-06 19:30:00+00:00,221.0,214.0,14.12,16.73,,47.59359,-54.27349
2017-11-06 19:40:00+00:00,225.0,218.0,13.2,16.45,,47.59359,-54.27349
2017-11-06 19:50:00+00:00,222.0,222.0,14.12,16.36,,47.59359,-54.27349
2017-11-06 20:00:00+00:00,222.0,219.0,15.25,18.24,,47.59359,-54.27349
2017-11-06 20:10:00+00:00,221.0,225.0,16.15,18.38,,47.59359,-54.27349
2017-11-06 20:20:00+00:00,224.0,228.0,14.36,16.87,,47.59359,-54.27349
2017-11-06 20:30:00+00:00,223.0,227.0,15.21,17.97,,47.59359,-54.27349
2017-11-06 20:40:00+00:00,221.0,220.0,15.34,19.41,,47.59359,-54.27349
2017-11-06 20:50:00+00:00,220.0,218.0,13.98,17.06,,47.59359,-54.27349
2017-11-06 21:00:00+00:00,223.0,230.0,13.54,16.71,,47.59359,-54.27349
2017-11-06 21:10:00+00:00,222.0,219.0,14.08,15.9,,47.59359,-54.27349
2017-11-06 21:20:00+00:00,225.0,231.0,14.38,16.34,,47.59359,-54.27349
2017-11-06 21:30:00+00:00,219.0,224.0,14.9,16.65,,47.59359,-54.27349
2017-11-06 21:40:00+00:00,224.0,222.0,13.42,16.2,,47.59359,-54.27349
2017-11-06 21:50:00+00:00,230.0,232.0,11.0,12.47,,47.59359,-54.27349
2017-11-06 22:00:00+00:00,225.0,233.0,11.78,13.91,,47.59359,-54.27349
2017-11-06 22:10:00+00:00,231.0,233.0,11.6,14.58,,47.59359,-54.27349
2017-11-06 22:20:00+00:00,230.0,235.0,11.28,13.43,,47.59359,-54.27349
2017-11-06 22:30:00+00:00,238.0,232.0,9.99,11.79,,47.59359,-54.27349
2017-11-06 22:40:00+00:00,238.0,230.0,8.43,10.7,,47.59359,-54.27349
2017-11-06 22:50:00+00:00,240.0,237.0,10.49,14.13,,47.59359,-54.27349
2017-11-06 23:00:00+00:00,238.0,237.0,11.61,15.48,,47.59359,-54.27349
2017-11-06 23:10:00+00:00,231.0,231.0,11.4,14.13,,47.59359,-54.27349
2017-11-06 23:20:00+00:00,232.0,238.0,14.75,18.32,,47.59359,-54.27349
2017-11-06 23:30:00+00:00,231.0,230.0,15.17,18.23,,47.59359,-54.27349
2017-11-06 23:40:00+00:00,230.0,232.0,15.77,18.96,,47.59359,-54.27349
2017-11-06 23:50:00+00:00,226.0,220.0,16.82,19.49,,47.59359,-54.27349
